Theta_e
307 307 307 307 307 308 308 308 309 311 314 314 313 313 311 308 307 309 311 313 317 318 319 320 327 334 327 337 346 347 354 356 352 352 353 349 350 345 346 350 347 346 344 344 344
306 306 307 307 307 307 307 308 308 311 315 315 313 313 311 308 312 315 312 314 317 318 319 322 325 326 326 337 347 350 357 356 350 349 351 352 352 350 350 350 349 347 345 345 347
308 307 307 307 307 307 307 308 308 311 316 314 313 314 310 315 324 324 313 317 316 318 316 315 322 322 326 339 344 350 358 353 349 349 350 352 353 349 349 351 349 347 347 347 347
310 309 309 309 309 309 308 308 308 314 315 314 314 312 312 320 324 327 315 315 318 319 316 316 322 326 325 339 347 353 350 350 348 349 350 351 350 350 347 349 347 344 345 346 348
311 310 311 311 310 309 309 309 310 314 316 314 313 315 320 327 327 328 320 318 319 319 316 321 326 324 329 342 350 349 350 348 349 349 349 348 351 352 349 348 345 344 346 346 346
314 314 314 313 313 311 311 310 310 312 318 315 313 320 325 327 329 328 325 317 318 318 317 321 323 326 347 349 348 349 349 349 349 349 347 347 350 352 352 348 346 345 346 346 346
315 316 315 315 314 313 311 310 311 312 318 316 316 322 326 325 327 325 320 317 317 318 316 318 320 327 346 350 349 350 354 352 351 348 348 348 354 355 350 348 349 347 346 346 346
314 314 315 316 316 314 311 311 319 316 318 317 318 324 329 328 327 323 318 316 314 314 316 317 317 342 347 345 347 348 351 357 353 352 350 351 357 353 349 350 351 349 347 347 346
314 314 314 315 316 315 311 318 320 317 318 319 325 324 325 324 325 326 322 320 314 314 316 316 325 344 345 348 348 348 350 350 354 349 351 348 352 352 349 351 352 350 348 347 346
314 314 314 314 316 315 310 320 322 321 322 323 324 325 324 325 320 320 324 320 320 317 316 317 322 343 343 348 338 341 347 350 352 350 352 351 349 351 350 350 352 351 348 347 346
315 315 315 314 316 313 316 319 321 321 325 324 324 325 324 324 320 320 321 318 316 317 318 316 321 336 337 345 329 339 342 343 351 353 352 353 351 351 351 351 352 351 350 347 346
315 316 316 314 316 313 314 321 318 315 320 319 320 323 323 320 322 319 318 321 318 318 317 319 322 321 319 325 338 332 332 346 352 354 350 352 351 349 348 352 351 349 348 348 348
316 316 316 315 315 314 313 318 318 312 323 323 323 325 326 325 323 321 321 319 318 317 318 321 320 316 319 321 328 330 335 348 348 356 352 352 352 351 348 347 349 348 347 346 347
317 316 317 315 314 316 313 317 312 314 326 327 327 326 325 323 322 319 320 320 318 318 317 318 317 317 318 319 325 328 338 346 353 351 350 349 347 352 350 350 348 349 348 347 347
319 317 317 316 313 317 313 314 316 317 330 326 326 321 319 323 322 321 318 319 322 320 320 324 320 318 319 319 325 330 343 347 347 349 348 351 353 347 350 351 349 348 349 348 346
320 318 317 315 313 316 315 314 317 326 331 329 324 324 324 322 320 319 320 320 319 321 320 322 320 321 324 334 330 340 343 342 341 349 338 339 351 342 352 352 348 346 347 348 346
320 318 317 314 316 313 315 318 326 326 325 328 325 323 324 324 323 321 321 321 323 324 324 323 323 322 332 337 336 338 340 346 346 344 335 341 350 341 344 345 348 348 345 344 346
320 319 316 314 314 315 316 324 326 323 326 325 322 321 324 323 322 320 321 322 319 320 323 328 327 324 321 327 335 339 335 333 333 333 334 341 342 340 341 345 344 344 345 344 342
319 317 314 316 315 311 321 324 324 321 324 324 320 324 324 323 323 321 322 322 322 321 325 329 327 324 324 321 331 331 338 325 332 336 340 339 342 339 341 347 347 344 344 345 344
316 312 313 313 314 313 322 321 322 318 323 323 324 321 326 324 324 322 322 322 322 320 322 327 329 325 323 324 326 325 326 332 336 338 333 339 343 340 344 345 345 346 344 345 344
312 317 312 314 311 317 320 322 321 320 323 323 323 322 321 322 323 323 324 323 321 320 322 324 328 328 326 327 329 329 332 333 335 336 334 334 332 338 343 344 344 344 343 345 344
312 321 311 314 315 313 320 320 317 322 321 319 321 321 323 320 324 324 325 326 323 324 325 324 326 328 327 323 320 324 331 334 332 343 339 336 332 333 341 341 344 347 346 346 343
316 315 315 313 315 317 316 318 318 318 319 320 321 322 320 323 325 327 326 323 322 325 328 325 326 328 327 325 323 324 330 328 331 336 343 335 332 337 343 342 342 343 345 344 342
315 319 320 319 316 321 324 324 323 321 320 321 323 321 322 322 321 328 326 324 323 327 329 326 323 329 328 328 325 325 326 332 330 335 338 336 333 334 343 343 342 346 345 338 341
314 316 320 327 324 322 324 323 324 325 324 323 324 322 322 325 322 324 325 324 324 326 317 323 329 323 321 322 323 323 323 326 328 328 332 332 336 332 334 341 341 339 344 337 341
317 319 318 319 319 323 320 323 324 325 325 325 324 324 325 323 324 326 327 326 326 323 321 318 324 326 325 323 323 324 325 325 325 325 329 330 332 333 335 340 342 342 342 338 341
313 314 319 318 320 321 321 324 325 324 324 324 324 326 327 327 323 322 323 323 323 326 324 325 325 328 327 324 324 326 325 329 330 333 331 335 335 341 341 341 341 342 341 342 338
Wind_Speed
13 13 13 13 13 13 15 15 16 15 11 8 6 5 6 5 4 3 5 3 6 7 7 9 4 3 2 2 2 1 2 2 4 6 3 2 3 2 4 2 3 6 4 10 19
13 13 12 13 13 14 15 15 16 15 11 6 5 4 5 6 1 6 4 8 12 8 8 7 4 3 2 2 2 2 2 2 2 5 5 7 2 1 2 7 4 7 11 19 17
14 13 13 13 13 14 15 16 16 15 9 5 3 3 4 4 2 0 9 11 11 9 5 4 8 2 1 1 1 2 2 3 5 10 7 6 0 1 2 10 3 9 14 15 16
16 15 15 16 15 16 16 16 15 12 7 4 2 3 3 1 4 1 9 13 11 7 4 5 3 1 1 2 2 3 5 5 9 9 7 4 1 3 4 1 4 14 15 14 12
18 17 17 17 16 16 16 16 14 10 5 3 2 3 1 2 3 4 9 13 11 6 1 2 2 1 2 2 5 7 6 9 11 8 7 3 3 6 7 2 8 15 15 12 11
20 20 20 19 20 17 19 15 11 9 5 2 1 3 1 3 1 5 8 16 10 7 3 2 2 1 5 4 4 6 12 13 6 9 5 5 2 2 3 7 12 14 14 12 10
23 22 23 22 21 21 18 15 12 9 5 1 1 3 1 3 2 8 9 11 11 7 3 2 1 2 4 8 8 13 9 6 6 6 4 6 3 4 3 6 12 13 11 11 10
24 24 24 23 22 23 19 16 9 2 5 2 1 1 1 2 1 9 7 7 7 9 1 1 2 5 2 11 6 4 4 3 5 5 3 6 3 5 2 9 11 12 11 11 11
25 26 26 26 24 23 19 9 8 6 5 4 1 1 2 1 4 7 8 4 7 7 2 1 2 3 6 6 5 3 2 3 5 5 4 7 1 6 6 6 9 11 12 11 9
27 28 29 27 26 22 11 4 7 5 4 2 0 2 2 1 4 6 10 6 2 5 4 2 2 3 3 5 2 3 3 2 3 7 6 7 4 7 10 9 11 13 13 11 11
28 29 30 28 25 15 6 1 1 1 2 3 1 2 3 1 4 4 5 7 3 3 3 2 4 7 8 7 2 3 2 1 1 6 6 7 4 9 11 13 10 8 15 14 14
30 30 31 28 21 6 5 2 6 3 6 4 6 5 6 2 4 3 8 3 2 5 3 4 6 7 2 7 8 6 4 0 4 6 3 4 6 8 7 14 13 10 12 14 12
30 32 33 30 13 3 3 4 5 7 3 3 4 3 3 8 5 9 8 4 3 5 6 8 1 3 8 5 8 8 4 4 2 5 2 2 2 5 7 9 10 7 8 10 13
31 32 33 30 2 11 2 5 13 8 2 2 3 4 5 4 3 3 7 3 3 7 5 5 3 6 8 11 9 10 6 9 9 4 1 1 2 4 10 12 10 15 13 16 14
32 33 31 25 11 3 2 8 1 2 2 3 3 5 3 4 8 6 3 3 3 6 5 2 6 9 9 6 10 2 9 9 7 2 2 2 4 5 4 11 17 16 19 17 17
33 34 31 11 9 6 6 5 2 2 4 3 5 5 5 2 3 4 3 1 1 3 4 6 2 5 3 4 10 13 11 7 3 2 3 3 3 2 4 4 7 15 19 18 17
35 33 27 12 2 2 5 2 2 4 2 5 4 5 7 4 4 5 8 8 4 4 3 2 2 1 9 10 5 4 6 2 3 3 3 2 3 4 3 3 5 7 16 20 19
37 32 17 10 5 7 2 3 6 2 5 1 1 4 6 9 4 6 8 7 5 3 2 3 5 4 4 2 5 6 3 3 5 4 1 1 3 1 3 3 3 6 11 14 21
35 18 7 4 6 6 3 6 7 6 1 2 1 5 5 5 3 6 7 5 5 12 4 4 1 2 3 3 3 5 6 2 5 1 3 1 3 6 4 7 8 3 2 8 15
27 9 5 11 5 4 3 5 5 4 2 2 4 3 7 7 9 8 8 4 6 9 1 2 4 2 4 4 11 3 8 4 2 3 4 2 4 4 4 4 7 9 3 3 7
7 4 11 14 6 1 6 5 5 6 4 3 3 1 3 3 6 7 10 3 5 7 5 6 2 4 5 1 5 4 4 4 3 2 3 3 2 5 6 2 3 4 5 4 3
5 2 1 10 1 1 3 4 1 3 3 3 2 4 4 2 4 7 12 4 8 11 9 1 2 2 3 1 1 1 2 5 5 5 1 3 3 3 5 5 3 2 3 3 5
4 3 2 0 2 2 2 3 3 4 4 3 4 6 3 1 2 5 7 1 7 8 10 8 1 5 4 4 3 1 3 2 4 3 6 5 2 3 5 7 6 5 2 3 5
2 2 1 2 1 1 3 2 3 2 3 3 2 3 3 3 4 4 3 2 2 2 7 6 3 3 5 1 1 4 3 4 3 5 6 7 3 6 9 9 6 4 3 3 5
1 0 1 1 2 3 2 2 3 1 1 2 2 6 5 5 3 5 4 4 3 6 3 1 4 2 3 3 3 2 3 6 6 2 7 4 8 10 1 6 7 2 3 1 2
2 2 0 2 2 2 2 2 4 2 2 3 3 2 2 4 7 8 9 5 6 3 3 2 4 3 4 2 1 3 4 4 5 3 10 5 9 4 4 8 8 6 7 6 3
1 1 2 1 1 2 2 1 2 5 4 6 2 5 7 9 12 13 9 1 1 10 5 5 7 6 5 2 1 6 10 9 6 4 4 7 3 4 6 7 5 5 5 5 3
Wind_Direction
7 3 359 359 358 356 352 350 348 342 329 318 314 311 316 319 312 278 248 209 154 146 139 145 125 123 20 70 78 103 102 136 154 163 148 66 3 277 341 131 56 350 142 139 149
2 357 358 356 353 350 349 349 349 346 341 324 305 312 327 332 310 240 227 170 165 136 146 159 148 144 84 36 47 29 65 88 91 151 152 132 155 80 343 155 86 81 104 130 146
2 2 358 355 352 348 346 348 349 348 346 341 328 333 340 352 195 352 182 169 165 164 165 142 135 182 96 111 86 84 56 116 129 116 112 119 208 126 237 180 180 162 147 149 156
8 4 3 358 354 348 346 347 348 351 1 9 7 346 353 52 113 146 167 171 164 171 164 136 142 184 56 76 103 91 54 121 134 130 130 89 272 204 176 25 179 155 156 155 166
15 11 4 358 354 351 347 341 343 346 0 31 25 13 58 190 72 144 164 177 178 183 178 162 134 124 17 97 102 81 88 105 131 141 141 156 19 182 192 176 135 145 159 163 171
11 7 1 357 352 349 343 335 332 330 322 341 25 27 342 110 312 138 172 181 194 178 169 201 3 136 89 85 40 100 107 114 140 138 147 164 330 302 132 139 144 155 170 170 182
8 4 0 354 350 347 337 328 316 297 277 271 82 29 246 77 120 140 150 184 201 179 167 233 321 217 120 111 111 114 109 122 136 143 130 135 325 297 108 142 159 169 184 179 188
6 2 357 353 348 344 335 335 347 217 198 181 130 43 249 156 106 167 146 151 180 187 146 267 183 114 68 124 120 115 122 154 175 181 130 209 162 149 219 168 181 185 186 197 195
4 1 356 351 347 341 338 6 37 126 136 128 52 349 90 207 193 193 184 151 153 188 205 181 114 87 145 156 147 187 149 164 174 216 168 206 182 171 157 153 196 198 199 208 206
0 359 356 351 345 340 345 70 83 91 116 49 6 211 202 93 151 136 178 157 149 136 144 143 80 143 164 204 53 114 129 183 204 183 203 201 197 178 188 196 201 203 208 212 217
358 356 354 350 344 342 1 60 281 155 187 233 81 306 296 146 147 130 153 149 129 96 157 53 197 203 213 216 87 66 87 78 160 157 187 214 222 198 195 209 198 204 211 214 224
354 353 352 350 344 8 21 73 104 57 306 246 245 258 264 260 158 131 152 144 118 150 164 182 231 230 191 225 237 283 317 17 107 152 215 178 236 207 200 209 205 180 209 217 235
352 350 349 349 343 17 349 134 165 324 270 291 195 196 183 176 178 186 177 141 144 161 192 221 236 180 196 218 226 239 246 175 110 154 211 233 233 208 206 227 220 205 193 218 226
349 347 346 347 28 335 287 165 318 167 314 231 206 170 137 174 153 167 175 154 162 194 174 249 190 189 198 229 217 269 163 147 135 178 66 271 343 228 216 230 219 224 215 219 217
345 343 340 337 300 278 167 320 55 193 249 121 142 134 148 193 135 185 184 159 196 184 191 121 180 180 202 216 187 292 164 136 130 155 232 72 283 140 204 237 227 219 223 224 226
340 338 333 330 294 259 283 314 160 270 242 167 145 166 160 129 123 120 172 97 62 200 239 260 265 200 151 78 169 136 110 88 86 348 278 29 308 177 186 218 241 221 227 224 218
335 333 320 291 241 238 322 176 237 228 359 172 188 172 189 177 182 177 176 194 212 194 217 236 187 118 131 100 136 160 170 134 210 224 308 17 248 293 250 229 260 239 228 225 218
333 331 320 279 248 265 222 149 210 252 249 6 102 134 193 170 186 173 167 213 206 191 177 198 163 187 157 181 187 187 248 219 248 240 287 182 243 74 307 292 319 270 248 230 219
333 331 329 345 324 192 187 201 206 206 214 270 111 188 185 201 213 181 193 212 218 191 232 179 122 146 12 115 177 149 207 62 115 106 247 332 274 253 235 259 291 335 226 212 218
330 327 326 319 191 159 180 228 219 223 213 191 229 210 201 176 183 196 182 205 220 188 162 186 138 84 122 116 53 223 131 178 213 200 261 215 283 276 272 267 257 276 348 332 253
340 333 360 101 117 164 203 225 229 234 226 204 192 276 239 168 199 194 199 193 204 155 163 167 253 117 179 41 162 148 173 70 104 317 234 264 263 218 236 194 287 282 298 310 314
337 318 201 350 145 346 202 206 237 223 169 228 213 235 228 154 194 214 211 245 169 156 167 135 109 112 80 18 264 174 156 183 234 189 261 304 269 181 212 191 212 193 252 312 332
338 293 1 355 236 216 285 263 253 216 203 205 228 224 188 205 209 208 207 10 158 173 158 174 142 136 150 174 166 207 126 129 116 145 188 224 240 170 200 203 221 227 244 342 351
306 315 318 66 68 13 347 257 237 228 247 215 247 193 191 230 217 201 181 109 148 121 77 122 123 200 225 164 88 166 159 166 235 205 174 223 241 208 210 209 201 205 164 2 8
249 57 11 336 121 353 269 313 280 213 197 252 199 225 198 221 188 203 156 158 86 144 69 190 144 156 112 123 158 158 177 195 230 202 230 239 225 262 226 199 178 193 183 136 56
293 311 330 280 288 286 184 216 238 279 261 240 223 33 323 241 216 199 167 196 173 154 114 31 125 135 160 171 193 207 246 242 233 222 245 259 270 296 89 127 133 152 176 192 226
243 271 286 323 254 216 212 193 143 343 257 267 12 340 280 277 281 285 262 137 294 164 140 140 143 168 193 186 215 249 227 222 229 218 243 220 251 337 119 132 149 178 199 204 206